This is the latest recevied weather packets stored in our database for station/object WC4PEM-4. If no packets are shown the sender has not sent any weather packets the latest 10 day(s).
| Time | Temp. | Humidity | Pressure | Rain* | Wind** | Luminosity | Snow |
|---|---|---|---|---|---|---|---|
| 1788373275 | 32.78° C | 63% | 1014.3 hPa | 0 mm | - | - | - |
| 1788372975 | 32.78° C | 67% | 1014.2 hPa | 0 mm | - | - | - |
| 1788372675 | 32.78° C | 65% | 1014.4 hPa | 0 mm | - | - | - |
| 1788372545 | 32.78° C | 65% | 1014.6 hPa | 0 mm | - | - | - |
| 1788372375 | 32.78° C | 65% | 1014.6 hPa | 0 mm | - | - | - |
| 1788372075 | 33.33° C | 65% | 1014.6 hPa | 0 mm | - | - | - |
| 1788371775 | 33.33° C | 64% | 1014.7 hPa | 0 mm | - | - | - |
| 1788371581 | 32.78° C | 66% | 1014.6 hPa | 0 mm | - | - | - |
| 1788371475 | 32.78° C | 66% | 1014.6 hPa | 0 mm | - | - | - |
| 1788371175 | 32.78° C | 63% | 1014.5 hPa | 0 mm | - | - | - |
| 1788370875 | 32.78° C | 64% | 1014.6 hPa | 0 mm | - | - | - |
| 1788370575 | 32.22° C | 66% | 1014.8 hPa | 0 mm | - | - | - |
| 1788370276 | 32.22° C | 66% | 1014.7 hPa | 0 mm | - | - | - |
| 1788370105 | 32.78° C | 66% | 1014.9 hPa | 0 mm | - | - | - |
| 1788369976 | 32.78° C | 66% | 1014.9 hPa | 0 mm | - | - | - |
| 1788369676 | 32.78° C | 66% | 1014.8 hPa | 0 mm | - | - | - |
| 1788369470 | 32.78° C | 64% | 1014.8 hPa | 0 mm | - | - | - |
| 1788369376 | 32.78° C | 64% | 1014.8 hPa | 0 mm | - | - | - |
| 1788369076 | 32.78° C | 64% | 1015 hPa | 0 mm | - | - | - |
| 1788368776 | 32.22° C | 67% | 1015.2 hPa | 0 mm | - | - | - |
| 1788368718 | 31.67° C | 69% | 1015.3 hPa | 0 mm | - | - | - |
| 1788368476 | 31.67° C | 69% | 1015.3 hPa | 0 mm | - | - | - |
| 1788368379 | 31.67° C | 67% | 1015.3 hPa | 0 mm | - | - | - |
| 1788368176 | 31.67° C | 67% | 1015.3 hPa | 0 mm | - | - | - |
| 1788367876 | 32.22° C | 68% | 1015.2 hPa | 0 mm | - | - | - |
* Rain latest hour (hover to see other rain measurements)
** Current wind speed in m/s (hover to see current wind gust speed)